INMARSAT 5-F2

导读 | 豆包AI

INMARSAT 5-F2(国际移动卫星-5F2)是国际海事卫星组织第五代通信卫星星座的第二颗卫星,由美国波音公司研制,俄罗斯质子-M火箭于2015年2月1日发射升空,随后顺利进入预定轨道。卫星重6.1吨,设计寿命15年,主要覆盖美洲、大西洋区域,可为该区域提供高速移动宽带通信服务。

基本信息
目录编号:
40384
目录名称:
INMARSAT 5-F2
国际标识:
2015-005A
轨道中心:
EARTH
卫星名称:
INMARSAT 5-F2
卫星全名:
--
卫星状态:
在轨 (已飞行4059 天)
发射日期:
2015-02-01 UTC
国别 :
(Inmarsat)
星等 :
--
轨道信息
数据来源 国际轨道数据 AOE轨道数据
星历时间 2026-03-13T19:42:35+0800
15小时前
查看轨道信息
2026-03-11T17:00:00+0800
2天前
查看轨道信息
半长轴 42165.205km 42164.588km
偏心率 0.0000013 0.0000043
轨道倾角 0.025° 0.012°
近地点辐角 177.584° 85.186°
升交点赤经 145.551° 129.383°
平近点角 328.617° 34.419°
近地点 35787.013km 35786.269km
远地点 35787.123km 35786.633km
周期 1436.121分钟 1436.090分钟
每日圈数 1.002701 1.002723
详细信息
使用方式:
暂无
2D轨道图
3D轨道图
轨道高度分析图
轨道倾角分析图
轨道综合分析图
查看轨道综合分析图